Location: ???????
(55.4362°N, 38.1183°E)
Time: 13:26:09
(UTC+00:00)

Cosmos 2219 Rocket - Pass Details

Date: 29 October 2021
Orbit: 826 x 848 km, 71.0° (Epoch: 01 December)

Event Time Altitude Azimuth Distance (km) Brightness Sun altitude
Rises 16:52:27 0° 213° (SSW) 3,362 5.6 -25.5°
Reaches altitude 10° 16:54:52 10° 214° (SW) 2,434 4.8 -25.8°
Maximum altitude 17:00:28 86° 303° (WNW) 844 2.1 -26.6°
Enters shadow 17:01:47 55° 28° (NNE) 1,003 2.4 -26.8°
